| time (UTC) | temp F | wind direction | speed MPH | gust MPH | rain 1hr in | rain 24hr in | rain mn in | humidity % | barometer mb |
| 20260503180033 | 60 | 0.0 | 0.0 | 0.00 | 0.00 | 0.00 | 29 | 1018.5 | |
| 20260503174528 | 61 | 0.0 | 0.0 | 0.00 | 0.00 | 0.00 | 30 | 1018.6 | |
| 20260503173027 | 62 | 0.0 | 0.0 | 0.00 | 0.00 | 0.00 | 29 | 1018.7 | |
| 20260503171526 | 62 | 0.0 | 0.0 | 0.00 | 0.00 | 0.00 | 31 | 1019.0 | |
| 20260503081523 | 40 | 0.0 | 0.0 | 0.00 | 0.00 | 0.00 | 65 | 1016.6 | |
| 20260503071503 | 40 | 0.0 | 0.0 | 0.00 | 0.00 | 0.00 | 64 | 1016.2 | |
| 20260503060118 | 41 | 0.0 | 0.0 | 0.00 | 0.00 | 0.00 | 64 | 1016.1 | |
| 20260503054611 | 41 | 0.0 | 0.0 | 0.00 | 0.00 | 0.00 | 63 | 1016.1 | |
| 20260503053056 | 42 | 0.0 | 0.0 | 0.00 | 0.00 | 0.00 | 64 | 1016.2 | |
| 20260503051554 | 42 | 0.0 | 0.0 | 0.00 | 0.00 | 0.00 | 64 | 1016.1 | |
| 20260503050053 | 42 | 0.0 | 0.0 | 0.00 | 0.00 | 0.00 | 64 | 1016.0 | |
| 20260503044551 | 42 | 0.0 | 0.0 | 0.00 | 0.00 | 0.00 | 63 | 1015.8 | |
| 20260503043050 | 42 | 0.0 | 0.0 | 0.00 | 0.00 | 0.00 | 63 | 1015.7 | |
| 20260503041548 | 43 | 0.0 | 0.0 | 0.00 | 0.00 | 0.00 | 62 | 1015.4 | |
| 20260503040044 | 43 | 0.0 | 0.0 | 0.00 | 0.00 | 0.00 | 61 | 1015.3 | |
| 20260503034543 | 43 | 0.0 | 0.0 | 0.00 | 0.00 | 0.00 | 61 | 1015.1 | |
| 20260503033041 | 44 | 0.0 | 0.0 | 0.00 | 0.00 | 0.00 | 60 | 1015.1 | |
| 20260503031544 | 44 | 0.0 | 0.0 | 0.00 | 0.00 | 0.00 | 59 | 1015.1 | |
| 20260503030045 | 44 | 0.0 | 0.0 | 0.00 | 0.00 | 0.00 | 58 | 1015.4 | |
| 20260503024539 | 44 | 0.0 | 0.0 | 0.00 | 0.00 | 0.00 | 58 | 1015.2 | |
| 20260503023039 | 45 | 0.0 | 0.0 | 0.00 | 0.00 | 0.00 | 57 | 1015.4 | |
| 20260503021537 | 45 | 0.0 | 0.0 | 0.00 | 0.00 | 0.00 | 56 | 1015.3 | |
| 20260503020035 | 45 | 0.0 | 0.0 | 0.00 | 0.00 | 0.00 | 54 | 1015.1 | |
| 20260503014534 | 46 | 0.0 | 0.0 | 0.00 | 0.00 | 0.00 | 55 | 1014.8 | |
| 20260503013033 | 46 | 0.0 | 0.0 | 0.00 | 0.00 | 0.00 | 53 | 1014.8 | |
| 20260503011534 | 47 | 0.0 | 0.0 | 0.00 | 0.00 | 0.00 | 52 | 1014.6 | |
| 20260503010035 | 47 | 0.0 | 0.0 | 0.00 | 0.00 | 0.00 | 52 | 1014.6 | |
| 20260503004530 | 48 | 0.0 | 0.0 | 0.00 | 0.00 | 0.00 | 51 | 1014.5 | |
| 20260503003030 | 48 | 0.0 | 0.0 | 0.00 | 0.00 | 0.00 | 51 | 1014.2 | |
| 20260503001529 | 49 | 0.0 | 0.0 | 0.00 | 0.00 | 0.00 | 50 | 1014.1 | |
| 20260503000027 | 50 | 0.0 | 0.0 | 0.00 | 0.00 | 0.00 | 48 | 1014.0 | |
| 20260502234542 | 50 | 0.0 | 0.0 | 0.00 | 0.00 | 0.00 | 48 | 1013.7 | |
| 20260502233027 | 51 | 0.0 | 0.0 | 0.00 | 0.00 | 0.00 | 46 | 1013.7 | |
| 20260502231527 | 51 | 0.0 | 0.0 | 0.00 | 0.00 | 0.00 | 45 | 1013.5 | |
| 20260502230026 | 52 | 0.0 | 0.0 | 0.00 | 0.00 | 0.00 | 46 | 1013.4 | |
| 20260502224525 | 52 | 0.0 | 0.0 | 0.00 | 0.00 | 0.00 | 44 | 1013.3 | |
| 20260502223025 | 53 | 0.0 | 0.0 | 0.00 | 0.00 | 0.00 | 44 | 1013.2 | |
| 20260502221525 | 53 | 0.0 | 0.0 | 0.00 | 0.00 | 0.00 | 42 | 1013.2 | |
| 20260502220024 | 54 | 0.0 | 0.0 | 0.00 | 0.00 | 0.00 | 42 | 1013.0 | |
| 20260502214535 | 54 | 0.0 | 0.0 | 0.00 | 0.00 | 0.00 | 43 | 1012.9 | |
| 20260502213023 | 55 | 0.0 | 0.0 | 0.00 | 0.00 | 0.00 | 41 | 1012.8 | |
| 20260502211624 | 56 | 0.0 | 0.0 | 0.00 | 0.00 | 0.00 | 39 | 1012.7 | |
| 20260502210025 | 56 | 0.0 | 0.0 | 0.00 | 0.00 | 0.00 | 40 | 1012.4 | |
| 20260502204521 | 57 | 0.0 | 0.0 | 0.00 | 0.00 | 0.00 | 39 | 1012.3 | |
| 20260502203021 | 57 | 0.0 | 0.0 | 0.00 | 0.00 | 0.00 | 38 | 1012.4 | |
| 20260502201520 | 58 | 0.0 | 0.0 | 0.00 | 0.00 | 0.00 | 36 | 1012.5 | |
| 20260502200020 | 59 | 0.0 | 0.0 | 0.00 | 0.00 | 0.00 | 36 | 1012.5 | |
| 20260502194519 | 59 | 0.0 | 0.0 | 0.00 | 0.00 | 0.00 | 36 | 1012.3 | |
| 20260502193019 | 59 | 0.0 | 0.0 | 0.00 | 0.00 | 0.00 | 35 | 1012.3 | |
| 20260502191520 | 59 | 0.0 | 0.0 | 0.00 | 0.00 | 0.00 | 36 | 1012.3 | |
| 20260502190016 | 59 | 0.0 | 0.0 | 0.00 | 0.00 | 0.00 | 34 | 1012.3 | |
| 20260502184516 | 59 | 0.0 | 0.0 | 0.00 | 0.00 | 0.00 | 34 | 1012.4 | |
| 20260502183017 | 60 | 0.0 | 0.0 | 0.00 | 0.00 | 0.00 | 34 | 1012.3 | |
| 20260502181514 | 60 | 0.0 | 0.0 | 0.00 | 0.00 | 0.00 | 36 | 1012.4 |